{"data":{"norad_id":60525,"epoch":"2026-09-22T22:18:21.359232Z","epoch_age_seconds":79225,"freshness":"FRESH","line1":"1 60525U 24149BK  26265.92941388  .00017178  00000+0  32348-3 0  9999","line2":"2 60525  97.3683 353.6505 0003672 279.5018  80.5817 15.48588569117583","mean_motion":15.48588569,"eccentricity":0.0003672,"inclination_deg":97.3683,"raan_deg":353.6505,"arg_perigee_deg":279.5018,"mean_anomaly_deg":80.5817,"bstar":0.00032348,"rev_number":11758,"period_min":92.987900648775,"perigee_km":418.35755014513,"apogee_km":423.35072923812,"semimajor_km":6798.9911396916,"source":"CELESTRAK","updated_at":"2026-09-23T09:00:20.666978Z"}}